Year,Month,Day,Hour,Minute,Value (Times are PST for insolation in W/m^2)
2020,06,28,00,00,0.00
2020,06,28,00,01,0.00
2020,06,28,00,02,0.00
2020,06,28,00,03,0.00
2020,06,28,00,04,0.00
2020,06,28,00,05,0.00
2020,06,28,00,06,0.00
2020,06,28,00,07,0.00
2020,06,28,00,08,0.00
2020,06,28,00,09,0.00
2020,06,28,00,10,0.00
2020,06,28,00,11,0.00
2020,06,28,00,12,0.00
2020,06,28,00,13,0.00
2020,06,28,00,14,0.00
2020,06,28,00,15,0.00
2020,06,28,00,16,0.00
2020,06,28,00,17,0.00
2020,06,28,00,18,0.00
2020,06,28,00,19,0.00
2020,06,28,00,20,0.00
2020,06,28,00,21,0.00
2020,06,28,00,22,0.00
2020,06,28,00,23,0.00
2020,06,28,00,24,0.00
2020,06,28,00,25,0.00
2020,06,28,00,26,0.00
2020,06,28,00,27,0.00
2020,06,28,00,28,0.00
2020,06,28,00,29,0.00
2020,06,28,00,30,0.00
2020,06,28,00,31,0.00
2020,06,28,00,32,0.00
2020,06,28,00,33,0.00
2020,06,28,00,34,0.00
2020,06,28,00,35,0.00
2020,06,28,00,36,0.00
2020,06,28,00,37,0.00
2020,06,28,00,38,0.00
2020,06,28,00,39,0.00
2020,06,28,00,40,0.00
2020,06,28,00,41,0.00
2020,06,28,00,42,0.00
2020,06,28,00,43,0.00
2020,06,28,00,44,0.00
2020,06,28,00,45,0.00
2020,06,28,00,46,0.00
2020,06,28,00,47,0.00
2020,06,28,00,48,0.00
2020,06,28,00,49,0.00
2020,06,28,00,50,0.00
2020,06,28,00,51,0.00
2020,06,28,00,52,0.00
2020,06,28,00,53,0.00
2020,06,28,00,54,0.00
2020,06,28,00,55,0.00
2020,06,28,00,56,0.00
2020,06,28,00,57,0.00
2020,06,28,00,58,0.00
2020,06,28,00,59,0.00
2020,06,28,01,00,0.00
2020,06,28,01,01,0.00
2020,06,28,01,02,0.00
2020,06,28,01,03,0.00
2020,06,28,01,04,0.00
2020,06,28,01,05,0.00
2020,06,28,01,06,0.00
2020,06,28,01,07,0.00
2020,06,28,01,08,0.00
2020,06,28,01,09,0.00
2020,06,28,01,10,0.00
2020,06,28,01,11,0.00
2020,06,28,01,12,0.00
2020,06,28,01,13,0.00
2020,06,28,01,14,0.00
2020,06,28,01,15,0.00
2020,06,28,01,16,0.00
2020,06,28,01,17,0.00
2020,06,28,01,18,0.00
2020,06,28,01,19,0.00
2020,06,28,01,20,0.00
2020,06,28,01,21,0.00
2020,06,28,01,22,0.00
2020,06,28,01,23,0.00
2020,06,28,01,24,0.00
2020,06,28,01,25,0.00
2020,06,28,01,26,0.00
2020,06,28,01,27,0.00
2020,06,28,01,28,0.00
2020,06,28,01,29,0.00
2020,06,28,01,30,0.00
2020,06,28,01,31,0.00
2020,06,28,01,32,0.00
2020,06,28,01,33,0.00
2020,06,28,01,34,0.00
2020,06,28,01,35,0.00
2020,06,28,01,36,0.00
2020,06,28,01,37,0.00
2020,06,28,01,38,0.00
2020,06,28,01,39,0.00
2020,06,28,01,40,0.00
2020,06,28,01,41,0.00
2020,06,28,01,42,0.00
2020,06,28,01,43,0.00
2020,06,28,01,44,0.00
2020,06,28,01,45,0.00
2020,06,28,01,46,0.00
2020,06,28,01,47,0.00
2020,06,28,01,48,0.00
2020,06,28,01,49,0.00
2020,06,28,01,50,0.00
2020,06,28,01,51,0.00
2020,06,28,01,52,0.00
2020,06,28,01,53,0.00
2020,06,28,01,54,0.00
2020,06,28,01,55,0.00
2020,06,28,01,56,0.00
2020,06,28,01,57,0.00
2020,06,28,01,58,0.00
2020,06,28,01,59,0.00
2020,06,28,02,00,0.00
2020,06,28,02,01,0.00
2020,06,28,02,02,0.00
2020,06,28,02,03,0.00
2020,06,28,02,04,0.00
2020,06,28,02,05,0.00
2020,06,28,02,06,0.00
2020,06,28,02,07,0.00
2020,06,28,02,08,0.00
2020,06,28,02,09,0.00
2020,06,28,02,10,0.00
2020,06,28,02,11,0.00
2020,06,28,02,12,0.00
2020,06,28,02,13,0.00
2020,06,28,02,14,0.00
2020,06,28,02,15,0.00
2020,06,28,02,16,0.00
2020,06,28,02,17,0.00
2020,06,28,02,18,0.00
2020,06,28,02,19,0.00
2020,06,28,02,20,0.00
2020,06,28,02,21,0.00
2020,06,28,02,22,0.00
2020,06,28,02,23,0.00
2020,06,28,02,24,0.00
2020,06,28,02,25,0.00
2020,06,28,02,26,0.00
2020,06,28,02,27,0.00
2020,06,28,02,28,0.00
2020,06,28,02,29,0.00
2020,06,28,02,30,0.00
2020,06,28,02,31,0.00
2020,06,28,02,32,0.00
2020,06,28,02,33,0.00
2020,06,28,02,34,0.00
2020,06,28,02,35,0.00
2020,06,28,02,36,0.00
2020,06,28,02,37,0.00
2020,06,28,02,38,0.00
2020,06,28,02,39,0.00
2020,06,28,02,40,0.00
2020,06,28,02,41,0.00
2020,06,28,02,42,0.00
2020,06,28,02,43,0.00
2020,06,28,02,44,0.00
2020,06,28,02,45,0.00
2020,06,28,02,46,0.00
2020,06,28,02,47,0.00
2020,06,28,02,48,0.00
2020,06,28,02,49,0.00
2020,06,28,02,50,0.00
2020,06,28,02,51,0.00
2020,06,28,02,52,0.00
2020,06,28,02,53,0.00
2020,06,28,02,54,0.00
2020,06,28,02,55,0.00
2020,06,28,02,56,0.00
2020,06,28,02,57,0.00
2020,06,28,02,58,0.00
2020,06,28,02,59,0.00
2020,06,28,03,00,0.00
2020,06,28,03,01,0.00
2020,06,28,03,02,0.00
2020,06,28,03,03,0.00
2020,06,28,03,04,0.00
2020,06,28,03,05,0.00
2020,06,28,03,06,0.00
2020,06,28,03,07,0.00
2020,06,28,03,08,0.00
2020,06,28,03,09,0.00
2020,06,28,03,10,0.00
2020,06,28,03,11,0.00
2020,06,28,03,12,0.00
2020,06,28,03,13,0.00
2020,06,28,03,14,0.00
2020,06,28,03,15,0.00
2020,06,28,03,16,0.00
2020,06,28,03,17,0.00
2020,06,28,03,18,0.00
2020,06,28,03,19,0.00
2020,06,28,03,20,0.00
2020,06,28,03,21,0.00
2020,06,28,03,22,0.00
2020,06,28,03,23,0.00
2020,06,28,03,24,0.00
2020,06,28,03,25,0.00
2020,06,28,03,26,0.00
2020,06,28,03,27,0.00
2020,06,28,03,28,0.00
2020,06,28,03,29,0.00
2020,06,28,03,30,0.00
2020,06,28,03,31,0.00
2020,06,28,03,32,0.00
2020,06,28,03,33,0.00
2020,06,28,03,34,0.00
2020,06,28,03,35,0.00
2020,06,28,03,36,0.00
2020,06,28,03,37,0.00
2020,06,28,03,38,0.00
2020,06,28,03,39,0.00
2020,06,28,03,40,0.00
2020,06,28,03,41,0.00
2020,06,28,03,42,0.00
2020,06,28,03,43,0.00
2020,06,28,03,44,0.00
2020,06,28,03,45,0.00
2020,06,28,03,46,0.00
2020,06,28,03,47,0.00
2020,06,28,03,48,0.00
2020,06,28,03,49,0.00
2020,06,28,03,50,0.00
2020,06,28,03,51,0.00
2020,06,28,03,52,0.00
2020,06,28,03,53,0.00
2020,06,28,03,54,0.00
2020,06,28,03,55,0.00
2020,06,28,03,56,0.00
2020,06,28,03,57,0.00
2020,06,28,03,58,0.00
2020,06,28,03,59,0.00
2020,06,28,04,00,0.00
2020,06,28,04,01,0.00
2020,06,28,04,02,0.00
2020,06,28,04,03,0.00
2020,06,28,04,04,0.00
2020,06,28,04,05,0.00
2020,06,28,04,06,0.00
2020,06,28,04,07,0.00
2020,06,28,04,08,0.00
2020,06,28,04,09,0.00
2020,06,28,04,10,0.00
2020,06,28,04,11,0.00
2020,06,28,04,12,0.00
2020,06,28,04,13,0.00
2020,06,28,04,14,0.00
2020,06,28,04,15,0.00
2020,06,28,04,16,0.00
2020,06,28,04,17,0.00
2020,06,28,04,18,0.00
2020,06,28,04,19,0.00
2020,06,28,04,20,0.00
2020,06,28,04,21,0.00
2020,06,28,04,22,0.00
2020,06,28,04,23,0.00
2020,06,28,04,24,0.00
2020,06,28,04,25,0.00
2020,06,28,04,26,0.00
2020,06,28,04,27,0.00
2020,06,28,04,28,0.00
2020,06,28,04,29,0.00
2020,06,28,04,30,0.00
2020,06,28,04,31,0.00
2020,06,28,04,32,0.00
2020,06,28,04,33,0.00
2020,06,28,04,34,0.00
2020,06,28,04,35,0.00
2020,06,28,04,36,0.00
2020,06,28,04,37,0.00
2020,06,28,04,38,0.00
2020,06,28,04,39,0.00
2020,06,28,04,40,0.00
2020,06,28,04,41,0.00
2020,06,28,04,42,0.00
2020,06,28,04,43,0.00
2020,06,28,04,44,0.00
2020,06,28,04,45,0.00
2020,06,28,04,46,0.00
2020,06,28,04,47,0.00
2020,06,28,04,48,0.00
2020,06,28,04,49,0.00
2020,06,28,04,50,0.00
2020,06,28,04,51,0.00
2020,06,28,04,52,0.00
2020,06,28,04,53,0.00
2020,06,28,04,54,0.00
2020,06,28,04,55,0.00
2020,06,28,04,56,0.00
2020,06,28,04,57,0.00
2020,06,28,04,58,0.00
2020,06,28,04,59,0.00
2020,06,28,05,00,0.00
2020,06,28,05,01,0.00
2020,06,28,05,02,0.00
2020,06,28,05,03,0.00
2020,06,28,05,04,0.00
2020,06,28,05,05,0.00
2020,06,28,05,06,0.00
2020,06,28,05,07,0.00
2020,06,28,05,08,0.00
2020,06,28,05,09,0.00
2020,06,28,05,10,0.00
2020,06,28,05,11,0.00
2020,06,28,05,12,0.00
2020,06,28,05,13,0.00
2020,06,28,05,14,0.00
2020,06,28,05,15,0.00
2020,06,28,05,16,0.00
2020,06,28,05,17,0.00
2020,06,28,05,18,0.00
2020,06,28,05,19,0.00
2020,06,28,05,20,0.00
2020,06,28,05,21,0.00
2020,06,28,05,22,0.00
2020,06,28,05,23,0.00
2020,06,28,05,24,0.00
2020,06,28,05,25,0.00
2020,06,28,05,26,0.00
2020,06,28,05,27,0.00
2020,06,28,05,28,0.00
2020,06,28,05,29,0.00
2020,06,28,05,30,0.00
2020,06,28,05,31,0.00
2020,06,28,05,32,5.00
2020,06,28,05,33,5.00
2020,06,28,05,34,5.00
2020,06,28,05,35,5.00
2020,06,28,05,36,5.00
2020,06,28,05,37,6.30
2020,06,28,05,38,7.00
2020,06,28,05,39,7.00
2020,06,28,05,40,7.00
2020,06,28,05,41,7.00
2020,06,28,05,42,7.00
2020,06,28,05,43,7.70
2020,06,28,05,44,9.00
2020,06,28,05,45,9.00
2020,06,28,05,46,9.00
2020,06,28,05,47,10.60
2020,06,28,05,48,11.00
2020,06,28,05,49,11.10
2020,06,28,05,50,12.00
2020,06,28,05,51,12.00
2020,06,28,05,52,12.00
2020,06,28,05,53,13.00
2020,06,28,05,54,14.00
2020,06,28,05,55,14.00
2020,06,28,05,56,18.10
2020,06,28,05,57,19.10
2020,06,28,05,58,21.20
2020,06,28,05,59,23.00
2020,06,28,06,00,23.70
2020,06,28,06,01,25.50
2020,06,28,06,02,27.10
2020,06,28,06,03,29.30
2020,06,28,06,04,31.60
2020,06,28,06,05,36.30
2020,06,28,06,06,44.70
2020,06,28,06,07,54.00
2020,06,28,06,08,59.10
2020,06,28,06,09,62.00
2020,06,28,06,10,58.90
2020,06,28,06,11,53.00
2020,06,28,06,12,46.10
2020,06,28,06,13,39.90
2020,06,28,06,14,33.60
2020,06,28,06,15,31.60
2020,06,28,06,16,27.60
2020,06,28,06,17,25.70
2020,06,28,06,18,25.00
2020,06,28,06,19,25.00
2020,06,28,06,20,25.00
2020,06,28,06,21,25.00
2020,06,28,06,22,23.30
2020,06,28,06,23,20.90
2020,06,28,06,24,18.80
2020,06,28,06,25,17.50
2020,06,28,06,26,16.00
2020,06,28,06,27,16.00
2020,06,28,06,28,14.80
2020,06,28,06,29,14.00
2020,06,28,06,30,14.00
2020,06,28,06,31,14.00
2020,06,28,06,32,14.10
2020,06,28,06,33,16.40
2020,06,28,06,34,19.00
2020,06,28,06,35,21.80
2020,06,28,06,36,23.00
2020,06,28,06,37,23.00
2020,06,28,06,38,23.00
2020,06,28,06,39,23.00
2020,06,28,06,40,23.00
2020,06,28,06,41,23.00
2020,06,28,06,42,23.00
2020,06,28,06,43,23.00
2020,06,28,06,44,23.90
2020,06,28,06,45,25.00
2020,06,28,06,46,25.00
2020,06,28,06,47,25.00
2020,06,28,06,48,25.00
2020,06,28,06,49,25.10
2020,06,28,06,50,26.00
2020,06,28,06,51,26.00
2020,06,28,06,52,26.00
2020,06,28,06,53,27.00
2020,06,28,06,54,28.00
2020,06,28,06,55,28.00
2020,06,28,06,56,28.00
2020,06,28,06,57,31.60
2020,06,28,06,58,28.20
2020,06,28,06,59,30.00
2020,06,28,07,00,30.70
2020,06,28,07,01,31.10
2020,06,28,07,02,30.00
2020,06,28,07,03,30.00
2020,06,28,07,04,30.00
2020,06,28,07,05,31.70
2020,06,28,07,06,33.00
2020,06,28,07,07,32.00
2020,06,28,07,08,26.50
2020,06,28,07,09,26.90
2020,06,28,07,10,25.00
2020,06,28,07,11,23.90
2020,06,28,07,12,26.50
2020,06,28,07,13,42.00
2020,06,28,07,14,25.60
2020,06,28,07,15,36.90
2020,06,28,07,16,31.60
2020,06,28,07,17,20.20
2020,06,28,07,18,26.70
2020,06,28,07,19,32.50
2020,06,28,07,20,25.40
2020,06,28,07,21,24.50
2020,06,28,07,22,19.50
2020,06,28,07,23,18.00
2020,06,28,07,24,18.40
2020,06,28,07,25,20.20
2020,06,28,07,26,18.00
2020,06,28,07,27,21.10
2020,06,28,07,28,32.80
2020,06,28,07,29,39.60
2020,06,28,07,30,40.00
2020,06,28,07,31,41.80
2020,06,28,07,32,51.60
2020,06,28,07,33,61.30
2020,06,28,07,34,51.40
2020,06,28,07,35,43.20
2020,06,28,07,36,43.00
2020,06,28,07,37,45.20
2020,06,28,07,38,44.60
2020,06,28,07,39,48.10
2020,06,28,07,40,67.70
2020,06,28,07,41,104.00
2020,06,28,07,42,109.80
2020,06,28,07,43,149.30
2020,06,28,07,44,206.40
2020,06,28,07,45,221.90
2020,06,28,07,46,234.30
2020,06,28,07,47,263.20
2020,06,28,07,48,271.00
2020,06,28,07,49,266.20
2020,06,28,07,50,137.30
2020,06,28,07,51,118.60
2020,06,28,07,52,147.20
2020,06,28,07,53,220.10
2020,06,28,07,54,278.10
2020,06,28,07,55,298.70
2020,06,28,07,56,280.20
2020,06,28,07,57,236.50
2020,06,28,07,58,221.40
2020,06,28,07,59,200.10
2020,06,28,08,00,169.90
2020,06,28,08,01,159.40
2020,06,28,08,02,136.30
2020,06,28,08,03,145.60
2020,06,28,08,04,145.10
2020,06,28,08,05,92.10
2020,06,28,08,06,111.00
2020,06,28,08,07,118.40
2020,06,28,08,08,110.80
2020,06,28,08,09,115.30
2020,06,28,08,10,100.70
2020,06,28,08,11,82.30
2020,06,28,08,12,66.20
2020,06,28,08,13,61.10
2020,06,28,08,14,74.40
2020,06,28,08,15,95.30
2020,06,28,08,16,68.50
2020,06,28,08,17,64.30
2020,06,28,08,18,107.30
2020,06,28,08,19,182.50
2020,06,28,08,20,263.40
2020,06,28,08,21,338.60
2020,06,28,08,22,369.30
2020,06,28,08,23,396.90
2020,06,28,08,24,415.60
2020,06,28,08,25,423.10
2020,06,28,08,26,436.20
2020,06,28,08,27,444.10
2020,06,28,08,28,451.90
2020,06,28,08,29,457.50
2020,06,28,08,30,461.20
2020,06,28,08,31,465.40
2020,06,28,08,32,468.90
2020,06,28,08,33,473.40
2020,06,28,08,34,475.80
2020,06,28,08,35,478.70
2020,06,28,08,36,481.00
2020,06,28,08,37,483.70
2020,06,28,08,38,487.70
2020,06,28,08,39,492.90
2020,06,28,08,40,495.80
2020,06,28,08,41,496.90
2020,06,28,08,42,505.70
2020,06,28,08,43,515.70
2020,06,28,08,44,525.70
2020,06,28,08,45,530.00
2020,06,28,08,46,526.00
2020,06,28,08,47,521.10
2020,06,28,08,48,521.70
2020,06,28,08,49,528.60
2020,06,28,08,50,531.40
2020,06,28,08,51,533.20
2020,06,28,08,52,529.70
2020,06,28,08,53,528.80
2020,06,28,08,54,532.10
2020,06,28,08,55,531.70
2020,06,28,08,56,525.60
2020,06,28,08,57,524.00
2020,06,28,08,58,529.10
2020,06,28,08,59,533.20
2020,06,28,09,00,534.50
2020,06,28,09,01,537.60
2020,06,28,09,02,541.60
2020,06,28,09,03,545.50
2020,06,28,09,04,547.70
2020,06,28,09,05,549.60
2020,06,28,09,06,550.10
2020,06,28,09,07,554.10
2020,06,28,09,08,555.40
2020,06,28,09,09,557.70
2020,06,28,09,10,560.80
2020,06,28,09,11,563.60
2020,06,28,09,12,564.00
2020,06,28,09,13,567.00
2020,06,28,09,14,570.60
2020,06,28,09,15,574.90
2020,06,28,09,16,577.10
2020,06,28,09,17,579.70
2020,06,28,09,18,585.90
2020,06,28,09,19,589.00
2020,06,28,09,20,590.20
2020,06,28,09,21,596.30
2020,06,28,09,22,596.70
2020,06,28,09,23,597.80
2020,06,28,09,24,598.90
2020,06,28,09,25,598.70
2020,06,28,09,26,606.90
2020,06,28,09,27,616.50
2020,06,28,09,28,612.40
2020,06,28,09,29,629.50
2020,06,28,09,30,638.00
2020,06,28,09,31,638.00
2020,06,28,09,32,629.30
2020,06,28,09,33,631.60
2020,06,28,09,34,653.00
2020,06,28,09,35,650.00
2020,06,28,09,36,638.90
2020,06,28,09,37,637.80
2020,06,28,09,38,636.00
2020,06,28,09,39,639.10
2020,06,28,09,40,642.60
2020,06,28,09,41,643.00
2020,06,28,09,42,643.40
2020,06,28,09,43,646.20
2020,06,28,09,44,649.40
2020,06,28,09,45,654.30
2020,06,28,09,46,660.20
2020,06,28,09,47,663.10
2020,06,28,09,48,664.00
2020,06,28,09,49,663.10
2020,06,28,09,50,664.20
2020,06,28,09,51,667.10
2020,06,28,09,52,672.30
2020,06,28,09,53,675.90
2020,06,28,09,54,677.00
2020,06,28,09,55,677.00
2020,06,28,09,56,675.50
2020,06,28,09,57,676.70
2020,06,28,09,58,679.90
2020,06,28,09,59,682.30
2020,06,28,10,00,685.30
2020,06,28,10,01,690.90
2020,06,28,10,02,693.50
2020,06,28,10,03,694.80
2020,06,28,10,04,696.00
2020,06,28,10,05,694.40
2020,06,28,10,06,695.80
2020,06,28,10,07,701.10
2020,06,28,10,08,703.00
2020,06,28,10,09,703.00
2020,06,28,10,10,703.80
2020,06,28,10,11,706.50
2020,06,28,10,12,714.90
2020,06,28,10,13,722.70
2020,06,28,10,14,728.10
2020,06,28,10,15,743.70
2020,06,28,10,16,764.60
2020,06,28,10,17,759.20
2020,06,28,10,18,755.70
2020,06,28,10,19,759.00
2020,06,28,10,20,759.00
2020,06,28,10,21,729.70
2020,06,28,10,22,737.60
2020,06,28,10,23,776.60
2020,06,28,10,24,782.00
2020,06,28,10,25,782.00
2020,06,28,10,26,785.70
2020,06,28,10,27,795.00
2020,06,28,10,28,795.00
2020,06,28,10,29,782.00
2020,06,28,10,30,768.10
2020,06,28,10,31,767.60
2020,06,28,10,32,771.60
2020,06,28,10,33,773.00
2020,06,28,10,34,773.90
2020,06,28,10,35,777.00
2020,06,28,10,36,777.00
2020,06,28,10,37,775.90
2020,06,28,10,38,796.40
2020,06,28,10,39,824.60
2020,06,28,10,40,835.80
2020,06,28,10,41,868.60
2020,06,28,10,42,899.10
2020,06,28,10,43,935.00
2020,06,28,10,44,935.00
2020,06,28,10,45,931.60
2020,06,28,10,46,919.10
2020,06,28,10,47,911.30
2020,06,28,10,48,849.10
2020,06,28,10,49,835.00
2020,06,28,10,50,835.00
2020,06,28,10,51,842.40
2020,06,28,10,52,873.50
2020,06,28,10,53,864.90
2020,06,28,10,54,818.60
2020,06,28,10,55,796.50
2020,06,28,10,56,801.30
2020,06,28,10,57,796.70
2020,06,28,10,58,795.10
2020,06,28,10,59,796.30
2020,06,28,11,00,798.00
2020,06,28,11,01,798.70
2020,06,28,11,02,802.20
2020,06,28,11,03,805.00
2020,06,28,11,04,807.70
2020,06,28,11,05,809.00
2020,06,28,11,06,827.70
2020,06,28,11,07,842.10
2020,06,28,11,08,848.40
2020,06,28,11,09,844.80
2020,06,28,11,10,850.50
2020,06,28,11,11,879.40
2020,06,28,11,12,916.20
2020,06,28,11,13,982.80
2020,06,28,11,14,1014.00
2020,06,28,11,15,1016.00
2020,06,28,11,16,927.60
2020,06,28,11,17,234.90
2020,06,28,11,18,287.00
2020,06,28,11,19,287.00
2020,06,28,11,20,287.00
2020,06,28,11,21,287.00
2020,06,28,11,22,287.00
2020,06,28,11,23,791.30
2020,06,28,11,24,857.70
2020,06,28,11,25,855.50
2020,06,28,11,26,853.00
2020,06,28,11,27,855.60
2020,06,28,11,28,864.80
2020,06,28,11,29,882.40
2020,06,28,11,30,900.30
2020,06,28,11,31,910.50
2020,06,28,11,32,939.80
2020,06,28,11,33,963.70
2020,06,28,11,34,967.00
2020,06,28,11,35,924.60
2020,06,28,11,36,899.70
2020,06,28,11,37,883.80
2020,06,28,11,38,876.60
2020,06,28,11,39,874.30
2020,06,28,11,40,868.90
2020,06,28,11,41,867.10
2020,06,28,11,42,867.40
2020,06,28,11,43,870.90
2020,06,28,11,44,874.30
2020,06,28,11,45,877.70
2020,06,28,11,46,878.80
2020,06,28,11,47,879.70
2020,06,28,11,48,881.00
2020,06,28,11,49,881.00
2020,06,28,11,50,874.00
2020,06,28,11,51,869.60
2020,06,28,11,52,867.70
2020,06,28,11,53,867.40
2020,06,28,11,54,869.90
2020,06,28,11,55,869.00
2020,06,28,11,56,869.10
2020,06,28,11,57,873.30
2020,06,28,11,58,872.20
2020,06,28,11,59,872.20
2020,06,28,12,00,874.20
2020,06,28,12,01,875.70
2020,06,28,12,02,876.20
2020,06,28,12,03,877.10
2020,06,28,12,04,877.70
2020,06,28,12,05,878.50
2020,06,28,12,06,879.00
2020,06,28,12,07,878.90
2020,06,28,12,08,877.30
2020,06,28,12,09,879.00
2020,06,28,12,10,879.70
2020,06,28,12,11,882.40
2020,06,28,12,12,882.80
2020,06,28,12,13,882.00
2020,06,28,12,14,882.00
2020,06,28,12,15,883.80
2020,06,28,12,16,882.60
2020,06,28,12,17,888.00
2020,06,28,12,18,888.00
2020,06,28,12,19,888.40
2020,06,28,12,20,889.00
2020,06,28,12,21,888.40
2020,06,28,12,22,886.50
2020,06,28,12,23,890.30
2020,06,28,12,24,891.10
2020,06,28,12,25,892.80
2020,06,28,12,26,892.00
2020,06,28,12,27,894.30
2020,06,28,12,28,897.00
2020,06,28,12,29,898.10
2020,06,28,12,30,901.70
2020,06,28,12,31,901.20
2020,06,28,12,32,900.00
2020,06,28,12,33,902.10
2020,06,28,12,34,904.00
2020,06,28,12,35,904.00
2020,06,28,12,36,905.10
2020,06,28,12,37,907.00
2020,06,28,12,38,909.50
2020,06,28,12,39,911.70
2020,06,28,12,40,912.00
2020,06,28,12,41,915.70
2020,06,28,12,42,918.10
2020,06,28,12,43,919.50
2020,06,28,12,44,922.70
2020,06,28,12,45,926.90
2020,06,28,12,46,926.90
2020,06,28,12,47,930.40
2020,06,28,12,48,927.80
2020,06,28,12,49,926.00
2020,06,28,12,50,926.00
2020,06,28,12,51,926.00
2020,06,28,12,52,925.20
2020,06,28,12,53,926.30
2020,06,28,12,54,933.40
2020,06,28,12,55,933.20
2020,06,28,12,56,910.70
2020,06,28,12,57,919.60
2020,06,28,12,58,921.30
2020,06,28,12,59,917.60
2020,06,28,13,00,914.00
2020,06,28,13,01,913.30
2020,06,28,13,02,911.60
2020,06,28,13,03,910.00
2020,06,28,13,04,909.00
2020,06,28,13,05,909.00
2020,06,28,13,06,907.40
2020,06,28,13,07,908.70
2020,06,28,13,08,905.60
2020,06,28,13,09,908.00
2020,06,28,13,10,905.70
2020,06,28,13,11,906.10
2020,06,28,13,12,908.90
2020,06,28,13,13,910.10
2020,06,28,13,14,905.90
2020,06,28,13,15,906.80
2020,06,28,13,16,912.40
2020,06,28,13,17,919.90
2020,06,28,13,18,928.60
2020,06,28,13,19,927.40
2020,06,28,13,20,918.70
2020,06,28,13,21,912.80
2020,06,28,13,22,911.30
2020,06,28,13,23,915.10
2020,06,28,13,24,922.50
2020,06,28,13,25,919.20
2020,06,28,13,26,914.80
2020,06,28,13,27,902.60
2020,06,28,13,28,919.00
2020,06,28,13,29,912.30
2020,06,28,13,30,911.60
2020,06,28,13,31,909.80
2020,06,28,13,32,907.30
2020,06,28,13,33,902.50
2020,06,28,13,34,902.90
2020,06,28,13,35,898.50
2020,06,28,13,36,901.50
2020,06,28,13,37,902.10
2020,06,28,13,38,897.60
2020,06,28,13,39,898.70
2020,06,28,13,40,900.00
2020,06,28,13,41,901.80
2020,06,28,13,42,898.20
2020,06,28,13,43,899.10
2020,06,28,13,44,897.30
2020,06,28,13,45,900.00
2020,06,28,13,46,897.90
2020,06,28,13,47,898.50
2020,06,28,13,48,898.60
2020,06,28,13,49,896.40
2020,06,28,13,50,896.00
2020,06,28,13,51,896.00
2020,06,28,13,52,896.00
2020,06,28,13,53,895.70
2020,06,28,13,54,895.00
2020,06,28,13,55,893.90
2020,06,28,13,56,893.00
2020,06,28,13,57,893.00
2020,06,28,13,58,894.80
2020,06,28,13,59,891.10
2020,06,28,14,00,892.30
2020,06,28,14,01,889.00
2020,06,28,14,02,888.60
2020,06,28,14,03,887.00
2020,06,28,14,04,886.00
2020,06,28,14,05,887.40
2020,06,28,14,06,886.40
2020,06,28,14,07,886.00
2020,06,28,14,08,885.80
2020,06,28,14,09,884.00
2020,06,28,14,10,884.70
2020,06,28,14,11,884.40
2020,06,28,14,12,881.50
2020,06,28,14,13,881.70
2020,06,28,14,14,881.30
2020,06,28,14,15,881.90
2020,06,28,14,16,879.20
2020,06,28,14,17,880.40
2020,06,28,14,18,877.60
2020,06,28,14,19,876.40
2020,06,28,14,20,873.40
2020,06,28,14,21,873.20
2020,06,28,14,22,874.00
2020,06,28,14,23,875.00
2020,06,28,14,24,868.80
2020,06,28,14,25,871.40
2020,06,28,14,26,868.40
2020,06,28,14,27,867.90
2020,06,28,14,28,865.00
2020,06,28,14,29,867.50
2020,06,28,14,30,867.60
2020,06,28,14,31,868.00
2020,06,28,14,32,867.20
2020,06,28,14,33,863.30
2020,06,28,14,34,862.70
2020,06,28,14,35,861.00
2020,06,28,14,36,860.60
2020,06,28,14,37,860.00
2020,06,28,14,38,858.90
2020,06,28,14,39,856.70
2020,06,28,14,40,856.00
2020,06,28,14,41,853.40
2020,06,28,14,42,849.60
2020,06,28,14,43,852.60
2020,06,28,14,44,850.40
2020,06,28,14,45,849.00
2020,06,28,14,46,848.00
2020,06,28,14,47,851.10
2020,06,28,14,48,849.10
2020,06,28,14,49,844.60
2020,06,28,14,50,842.10
2020,06,28,14,51,841.60
2020,06,28,14,52,838.40
2020,06,28,14,53,840.00
2020,06,28,14,54,840.00
2020,06,28,14,55,837.20
2020,06,28,14,56,836.30
2020,06,28,14,57,835.50
2020,06,28,14,58,835.00
2020,06,28,14,59,831.10
2020,06,28,15,00,830.00
2020,06,28,15,01,829.50
2020,06,28,15,02,826.50
2020,06,28,15,03,824.00
2020,06,28,15,04,823.40
2020,06,28,15,05,823.00
2020,06,28,15,06,821.40
2020,06,28,15,07,819.20
2020,06,28,15,08,817.00
2020,06,28,15,09,816.10
2020,06,28,15,10,814.10
2020,06,28,15,11,816.00
2020,06,28,15,12,811.00
2020,06,28,15,13,806.90
2020,06,28,15,14,808.50
2020,06,28,15,15,809.20
2020,06,28,15,16,805.30
2020,06,28,15,17,805.00
2020,06,28,15,18,804.50
2020,06,28,15,19,802.70
2020,06,28,15,20,801.10
2020,06,28,15,21,797.80
2020,06,28,15,22,797.30
2020,06,28,15,23,794.10
2020,06,28,15,24,794.70
2020,06,28,15,25,792.90
2020,06,28,15,26,790.40
2020,06,28,15,27,788.30
2020,06,28,15,28,788.60
2020,06,28,15,29,788.50
2020,06,28,15,30,785.90
2020,06,28,15,31,784.00
2020,06,28,15,32,782.40
2020,06,28,15,33,780.20
2020,06,28,15,34,779.30
2020,06,28,15,35,771.90
2020,06,28,15,36,761.00
2020,06,28,15,37,761.00
2020,06,28,15,38,702.90
2020,06,28,15,39,690.60
2020,06,28,15,40,715.00
2020,06,28,15,41,715.00
2020,06,28,15,42,134.80
2020,06,28,15,43,49.10
2020,06,28,15,44,62.90
2020,06,28,15,45,60.60
2020,06,28,15,46,70.30
2020,06,28,15,47,56.10
2020,06,28,15,48,67.20
2020,06,28,15,49,78.10
2020,06,28,15,50,88.80
2020,06,28,15,51,45.90
2020,06,28,15,52,44.00
2020,06,28,15,53,45.60
2020,06,28,15,54,47.80
2020,06,28,15,55,45.00
2020,06,28,15,56,45.30
2020,06,28,15,57,46.00
2020,06,28,15,58,44.40
2020,06,28,15,59,46.70
2020,06,28,16,00,46.10
2020,06,28,16,01,58.50
2020,06,28,16,02,54.80
2020,06,28,16,03,45.10
2020,06,28,16,04,44.00
2020,06,28,16,05,42.70
2020,06,28,16,06,42.00
2020,06,28,16,07,42.00
2020,06,28,16,08,44.10
2020,06,28,16,09,47.50
2020,06,28,16,10,51.90
2020,06,28,16,11,53.10
2020,06,28,16,12,63.40
2020,06,28,16,13,54.30
2020,06,28,16,14,48.40
2020,06,28,16,15,53.10
2020,06,28,16,16,49.60
2020,06,28,16,17,51.30
2020,06,28,16,18,53.80
2020,06,28,16,19,50.20
2020,06,28,16,20,42.30
2020,06,28,16,21,40.00
2020,06,28,16,22,42.70
2020,06,28,16,23,42.50
2020,06,28,16,24,45.40
2020,06,28,16,25,54.30
2020,06,28,16,26,67.10
2020,06,28,16,27,52.00
2020,06,28,16,28,42.00
2020,06,28,16,29,41.00
2020,06,28,16,30,40.00
2020,06,28,16,31,42.70
2020,06,28,16,32,51.00
2020,06,28,16,33,53.90
2020,06,28,16,34,45.90
2020,06,28,16,35,43.10
2020,06,28,16,36,46.10
2020,06,28,16,37,43.20
2020,06,28,16,38,40.40
2020,06,28,16,39,39.00
2020,06,28,16,40,39.00
2020,06,28,16,41,39.00
2020,06,28,16,42,41.90
2020,06,28,16,43,47.10
2020,06,28,16,44,59.70
2020,06,28,16,45,76.00
2020,06,28,16,46,74.20
2020,06,28,16,47,74.20
2020,06,28,16,48,80.70
2020,06,28,16,49,89.20
2020,06,28,16,50,66.30
2020,06,28,16,51,39.90
2020,06,28,16,52,39.50
2020,06,28,16,53,41.10
2020,06,28,16,54,39.00
2020,06,28,16,55,39.00
2020,06,28,16,56,42.00
2020,06,28,16,57,58.80
2020,06,28,16,58,50.10
2020,06,28,16,59,42.20
2020,06,28,17,00,39.70
2020,06,28,17,01,37.00
2020,06,28,17,02,40.30
2020,06,28,17,03,54.30
2020,06,28,17,04,65.00
2020,06,28,17,05,48.30
2020,06,28,17,06,37.80
2020,06,28,17,07,39.60
2020,06,28,17,08,40.00
2020,06,28,17,09,38.60
2020,06,28,17,10,37.00
2020,06,28,17,11,37.00
2020,06,28,17,12,36.00
2020,06,28,17,13,35.00